SUOMI NPP (37849 NORAD) Tracking and Keplerian Element Data

This shows tracking and keplerian element data for the satellite.

Feedback or suggestion? Click here.




ElementValue
Catalog37849
NameSUOMI NPP
Epoch Orbit73273
Epoch Day351.98010966
Epoch Year2025
RAAN289.2746
Inclination98.7779
Eccentricity0.0002393
Argument of Perigee111.1248
Mean Anonmoly249.0184
Mean Motion14.19515682
Decay Rate5.8E-07
L11 37849U 11061A 25351.98010966 .00000058 00000+0 48615-4 0 9995
L22 37849 98.7779 289.2746 0002393 111.1248 249.0184 14.19515682732735



Live tracking and technical data element details for SUOMI NPP (NORAD 37849). SUOMI NPP can be tracked NOW for your location showing map with azimuth and elevation plus other details from your city location.







IsCatalogInMostPopularTable: catalog: 37849, numindb: 1163
Update: records affected: 1



GetName: 37849 SUOMI NPP

Hit Count: updated at: Mon, 18 May 2026 09:44:39 GMT